Theta_e
311 311 311 310 310 310 310 310 310 310 310 310 311 311 311 312 312 312 312 312 311 311 312 311 311 311 310 310 310 309 309 308 308 308 307 306 305 305 305 304 304 306 307 308 308 308 307 306 306 306 305 304 303 302 302 301 300 299 298 297 296 296 296 296 297 298 298 297 297 296 295 294 292 290 288 285 284 285 284 283 283 283 284 284 283
311 311 311 311 310 310 310 310 309 309 310 310 310 310 311 311 311 311 311 311 311 311 311 310 310 310 310 310 309 309 308 307 307 307 307 307 306 306 306 305 305 305 306 307 308 308 307 307 306 307 306 304 303 303 302 301 300 299 298 297 296 296 296 296 296 296 297 296 295 294 293 292 291 290 288 287 285 284 283 283 282 282 283 283 283
312 312 312 311 310 309 309 309 309 309 309 309 309 309 309 309 309 309 310 310 310 310 310 310 309 309 309 309 309 308 308 307 307 307 307 307 306 306 306 306 306 306 306 306 307 307 307 307 306 307 306 304 303 303 302 301 300 299 298 297 296 296 296 295 295 295 296 296 294 293 292 291 290 289 289 287 285 284 283 283 282 282 283 283 283
311 312 311 311 310 309 308 308 307 308 308 308 308 308 308 308 308 308 308 309 309 309 309 308 308 308 308 308 308 308 308 307 306 306 306 307 307 306 306 306 306 306 306 306 306 306 306 306 306 306 305 304 303 303 302 301 300 299 298 297 297 296 296 295 295 294 295 295 294 292 291 290 289 288 287 285 284 283 283 282 282 282 282 282 283
310 310 310 310 309 307 307 307 306 306 306 306 306 306 306 306 306 306 307 308 308 307 308 307 307 307 307 307 307 307 307 307 306 306 306 306 306 306 306 306 306 306 306 306 306 305 305 305 305 305 304 303 302 302 301 301 300 299 298 297 297 296 296 295 294 294 293 294 293 291 290 289 288 286 286 285 283 282 281 281 281 281 281 282 283
308 308 308 308 307 306 306 305 305 305 304 305 305 305 305 305 305 305 306 306 306 306 306 306 306 306 306 306 306 306 306 306 306 306 305 306 306 306 306 306 305 305 305 305 305 305 304 304 304 304 304 303 302 302 301 301 300 299 298 298 297 296 295 294 293 293 292 293 293 290 288 287 286 285 284 284 283 281 280 280 281 281 281 282 282
307 306 306 306 305 305 304 304 304 304 304 304 304 304 304 304 304 305 305 305 305 305 305 305 305 305 305 305 305 305 305 305 305 305 305 305 305 305 305 305 305 305 305 304 304 304 304 304 303 303 303 303 303 302 302 301 300 299 299 298 297 296 294 293 293 292 291 291 292 290 287 286 286 284 284 283 283 282 281 280 280 280 280 281 281
306 305 305 305 305 304 304 304 304 304 304 304 304 304 304 304 304 304 304 304 304 304 304 304 304 304 304 304 304 304 304 304 304 304 304 304 304 304 304 304 304 304 304 304 303 303 303 303 302 302 302 303 303 302 302 301 300 299 299 298 297 295 294 293 292 291 291 291 291 289 287 285 284 284 283 282 281 281 281 281 281 280 280 280 281
305 305 304 304 304 304 304 304 304 304 305 304 304 304 304 304 304 304 304 304 304 304 303 303 303 303 303 303 303 303 303 303 303 304 304 304 303 303 303 303 303 303 303 303 302 302 302 302 302 302 302 302 302 302 302 301 301 300 299 298 297 295 294 293 292 291 290 290 290 289 286 285 284 283 282 281 281 282 282 281 281 281 280 280 280
304 304 304 303 303 304 304 304 304 304 304 304 304 304 304 304 304 304 303 303 303 303 303 303 303 303 303 303 302 302 302 303 303 303 303 303 302 302 302 301 301 301 301 302 301 301 301 301 301 301 301 301 302 302 301 301 301 300 299 298 297 296 294 293 292 291 290 290 290 289 287 285 285 284 283 283 282 283 282 281 280 281 281 280 280
304 304 303 303 304 304 305 305 304 304 304 304 304 303 303 303 302 302 302 302 302 302 302 302 302 302 302 302 302 302 302 303 303 303 302 302 301 301 300 300 300 300 300 300 300 301 301 300 300 300 300 300 301 301 301 301 300 300 299 298 297 296 295 294 292 291 291 290 290 289 288 287 286 285 284 284 283 283 282 281 280 281 281 280 280
303 303 302 302 303 303 304 304 304 304 304 304 304 303 303 302 301 301 301 301 301 301 301 301 301 301 301 301 301 302 302 302 302 302 302 301 301 300 300 299 299 298 298 299 299 300 300 300 300 300 300 300 300 300 300 300 300 299 299 298 297 296 296 295 294 293 291 290 290 290 289 288 288 286 284 284 283 283 282 281 281 281 281 281 281
302 301 301 302 302 302 302 303 303 303 303 303 303 303 303 303 302 301 301 300 300 300 300 300 300 300 300 300 300 301 301 301 301 301 301 300 300 299 299 298 298 298 298 298 298 298 298 299 299 299 299 299 299 299 299 299 299 299 298 297 296 296 295 295 295 294 293 292 291 290 290 289 289 287 286 285 284 283 282 281 281 281 281 282 282
300 300 300 300 300 300 301 301 301 302 302 302 302 302 302 302 302 301 301 301 301 300 300 300 300 299 299 299 299 299 300 300 300 300 300 300 300 299 298 298 297 297 297 297 297 297 297 298 298 298 298 298 298 298 298 298 298 297 297 296 295 295 294 294 294 293 293 293 291 291 291 290 289 289 287 286 284 283 283 282 281 282 282 282 282
299 299 299 299 299 299 300 300 300 300 300 300 301 301 301 301 301 300 300 300 300 300 300 300 299 299 299 298 298 299 299 299 299 299 299 299 299 298 297 297 297 296 297 296 296 297 296 296 297 297 297 297 297 297 297 297 297 296 295 295 294 294 294 293 293 293 293 292 292 292 291 290 290 289 288 286 285 285 284 284 283 282 282 282 282
298 298 298 298 298 298 298 299 299 299 299 299 300 300 300 300 299 299 299 300 299 299 299 299 298 299 299 298 298 299 299 299 298 298 298 298 298 297 296 296 296 296 296 296 296 296 295 295 295 296 296 296 296 296 296 296 295 294 294 293 293 293 292 293 293 293 292 292 292 291 290 290 290 289 289 287 286 285 284 284 283 282 282 282 282
298 298 298 298 298 297 297 298 298 299 299 299 299 299 299 299 298 298 298 298 299 298 298 298 298 298 298 298 297 298 298 298 297 297 297 297 297 296 296 295 295 295 295 296 295 295 295 294 294 295 295 295 295 295 294 294 294 293 292 292 291 291 291 291 291 291 291 291 291 291 290 290 290 290 290 288 287 285 284 283 283 282 282 282 282
297 297 297 297 297 297 297 297 297 298 298 298 298 298 298 298 297 297 297 297 297 297 297 297 297 297 297 297 296 296 298 297 296 296 296 296 296 295 295 294 294 294 294 294 294 294 294 294 294 294 294 294 294 294 294 293 292 292 292 291 290 290 290 290 289 289 289 289 289 290 289 289 289 290 290 288 287 286 285 284 283 282 282 283 283
295 295 296 296 296 297 296 297 296 297 297 297 297 297 297 297 297 297 296 296 296 296 295 295 296 296 296 296 295 295 296 296 296 295 295 294 294 294 294 293 293 293 293 293 293 293 293 293 293 293 293 294 294 294 293 292 292 291 291 290 289 289 289 289 289 288 288 288 288 288 288 288 288 289 289 288 287 287 286 285 284 283 283 284 284
293 294 295 295 295 295 295 296 296 295 296 296 296 296 296 296 296 296 296 296 296 296 295 295 295 296 296 295 295 294 294 295 295 294 293 293 293 293 293 292 292 292 292 292 292 292 292 292 292 292 293 293 293 293 293 292 291 291 291 290 289 289 289 289 288 287 287 287 287 287 287 287 287 288 288 287 286 286 286 286 285 285 285 285 283
292 293 294 294 294 294 294 294 294 294 294 294 294 295 295 295 295 295 295 295 295 296 296 295 295 296 296 296 295 295 294 294 294 293 293 292 292 292 292 292 292 292 292 291 291 291 291 291 291 292 292 292 293 293 292 292 291 290 290 289 289 289 289 288 287 287 287 287 286 286 286 286 287 287 287 286 285 285 285 285 285 286 286 286 284
291 292 293 293 293 293 293 293 293 293 293 293 293 293 293 293 293 293 293 294 293 294 294 294 294 295 296 296 296 296 295 295 294 293 292 292 292 292 291 292 292 291 290 291 291 291 291 291 291 291 291 291 292 292 292 291 290 290 289 289 289 289 288 287 287 286 286 286 285 285 285 286 286 286 286 285 285 285 285 285 285 286 286 286 287
290 291 291 292 292 292 293 293 292 292 292 292 291 292 292 292 292 292 292 292 292 292 293 293 292 293 294 295 295 295 295 295 294 293 292 292 291 291 291 292 291 290 290 290 290 290 290 290 290 290 290 290 291 291 291 290 290 289 289 288 288 288 287 287 287 286 285 285 285 285 285 285 285 285 285 285 285 285 285 285 285 285 285 286 287
289 289 290 290 291 291 291 291 291 291 291 291 291 291 292 292 292 292 291 290 290 290 291 291 290 290 291 292 294 295 294 294 293 293 292 292 291 291 291 291 291 290 289 290 290 290 290 290 290 290 289 289 290 290 290 290 289 288 288 288 287 287 287 286 286 285 285 285 284 284 284 284 284 284 284 284 285 285 285 285 285 285 285 285 284
286 286 287 287 289 290 290 290 290 290 290 290 290 290 291 291 291 291 290 289 288 289 289 289 288 288 288 289 291 293 293 292 292 292 291 291 291 291 290 290 290 290 289 289 289 289 289 289 289 289 289 288 288 289 289 289 288 288 287 287 287 287 287 286 285 285 285 284 284 284 284 284 284 284 284 285 285 285 284 283 283 283 283 283 283
285 285 286 287 288 289 289 290 290 290 290 290 290 289 289 288 289 289 289 288 287 287 288 288 287 287 288 288 289 290 291 291 291 290 290 290 290 290 289 289 290 290 289 289 289 289 289 289 288 289 289 288 288 287 287 288 287 287 287 287 287 287 287 286 285 285 284 284 284 284 284 284 284 284 284 284 285 284 283 282 281 281 281 281 281
284 284 284 285 286 287 287 288 288 289 289 289 289 289 288 287 286 287 287 286 286 286 287 287 287 287 287 288 288 289 289 290 290 289 289 289 289 289 289 288 289 289 289 289 289 289 289 288 288 288 288 288 287 287 287 286 286 286 286 286 287 287 286 286 286 285 284 284 284 284 284 284 284 283 284 284 283 283 283 282 281 280 280 281 281
279 279 280 280 282 283 283 283 284 285 287 286 286 286 286 285 285 286 286 285 285 286 286 286 286 287 287 287 287 287 288 289 289 289 289 289 288 288 288 287 287 287 288 288 288 288 288 287 287 287 288 287 287 286 286 285 285 285 286 286 286 286 286 286 286 285 284 284 284 284 284 284 283 283 283 283 283 283 283 282 281 281 281 280 280
275 275 276 276 277 277 278 278 279 280 282 283 284 284 285 284 283 285 287 287 284 284 286 286 286 286 286 286 286 286 286 288 289 289 288 288 287 287 287 287 287 286 286 287 287 287 286 286 286 287 287 287 286 285 285 285 285 285 285 285 285 286 286 286 285 285 284 284 284 284 284 283 283 283 282 282 282 283 282 282 282 281 281 281 281
272 272 273 273 273 273 274 274 275 276 277 278 280 283 285 284 283 283 286 287 286 284 284 285 286 286 286 286 286 286 286 288 288 288 287 287 287 287 287 287 287 287 286 286 286 286 286 286 286 286 286 286 286 285 285 285 284 285 285 285 285 285 285 285 285 285 285 284 284 284 284 283 283 282 282 282 282 282 282 282 282 281 280 281 281
270 270 270 271 271 272 272 273 273 274 275 275 276 278 281 284 285 284 283 285 285 285 284 284 285 285 285 286 286 286 286 287 287 287 287 287 287 287 287 287 287 287 287 286 286 286 286 286 286 286 286 285 285 285 285 285 284 285 285 285 285 285 285 285 285 285 285 284 284 284 284 283 283 282 282 282 282 281 281 281 281 281 281 281 281
269 269 269 270 270 271 271 272 272 273 274 275 275 276 276 279 283 285 285 284 283 284 284 284 284 284 285 285 286 286 286 286 286 286 287 286 286 287 287 287 287 287 287 287 286 286 286 286 286 286 286 285 285 285 285 285 285 284 284 285 285 285 285 285 285 285 285 284 284 284 284 283 283 282 282 282 281 281 280 280 280 281 281 281 281
268 268 269 269 269 269 270 271 272 272 273 273 274 275 276 276 278 282 284 284 283 283 284 284 284 284 284 285 285 285 286 286 286 286 286 286 286 286 286 287 287 287 287 286 286 286 286 286 286 286 286 285 285 285 285 284 284 284 284 284 285 285 285 285 285 285 285 285 284 284 284 284 283 283 282 282 281 281 280 280 280 280 280 280 280
269 268 267 267 267 268 268 269 270 270 271 272 273 273 275 276 276 277 279 281 282 282 282 283 283 283 283 284 284 285 285 285 285 285 286 286 286 286 286 286 286 287 287 286 286 286 286 286 286 286 286 286 285 285 285 284 284 284 284 284 284 285 285 285 285 285 285 285 284 284 284 284 283 283 282 282 281 281 280 280 280 280 280 280 280
267 266 265 265 266 266 267 268 268 269 270 271 272 272 273 275 276 277 278 280 280 281 281 282 282 282 282 283 283 284 284 284 285 285 285 285 285 286 286 286 286 286 286 286 286 286 286 286 286 286 286 286 285 285 285 284 284 284 284 284 284 284 285 285 285 285 285 285 285 284 284 284 283 283 283 282 281 281 280 280 280 280 280 280 280
264 263 264 264 265 266 266 267 268 269 269 270 271 272 273 274 275 277 278 279 280 280 281 281 281 281 281 282 282 283 284 284 284 284 285 285 285 285 286 286 286 286 286 286 286 285 285 286 286 286 286 286 285 285 284 284 284 284 284 284 284 284 285 285 285 285 285 285 285 285 284 284 284 283 283 282 282 281 281 280 280 280 280 280 280
263 263 263 264 264 265 266 266 267 268 269 270 271 271 272 273 274 276 277 278 279 280 280 281 281 281 281 281 282 282 283 283 284 284 284 285 285 285 285 286 286 286 286 285 285 285 285 285 285 286 286 286 285 285 284 284 284 284 284 284 284 284 285 285 285 285 285 285 285 285 284 284 284 284 283 283 282 281 281 281 280 280 280 280 280
262 262 263 263 264 264 265 266 267 267 268 269 270 271 271 272 273 274 276 277 278 279 280 280 280 280 281 281 281 281 282 283 284 284 284 284 285 285 285 285 285 285 285 285 285 285 285 285 285 285 285 285 285 285 284 284 284 284 284 284 284 284 284 285 285 285 285 285 285 285 285 284 284 284 283 283 282 282 281 281 280 280 280 279 279
261 261 262 262 263 263 264 265 265 266 267 268 269 269 270 271 272 273 274 275 277 278 279 279 279 280 280 280 280 281 282 282 283 284 284 284 284 284 285 285 285 285 285 285 285 284 284 284 284 285 285 285 285 284 284 284 284 284 284 284 284 284 284 285 285 285 285 285 285 285 285 284 284 284 283 283 283 282 281 281 280 280 279 279 279
261 261 261 262 262 263 264 264 265 265 266 267 268 268 269 270 271 272 273 274 275 276 277 278 278 279 279 279 279 280 281 282 283 283 283 284 284 284 284 284 285 285 285 285 284 284 284 284 284 284 285 285 285 284 284 284 284 284 283 283 284 284 284 284 285 285 285 285 285 285 284 284 284 283 283 283 283 282 282 281 280 280 280 279 278
261 261 261 262 262 263 263 264 264 265 266 266 267 267 268 269 270 271 272 273 274 275 276 276 277 277 278 278 278 279 280 281 282 283 283 284 284 284 284 284 284 284 284 284 284 284 284 284 284 284 284 285 284 284 284 283 283 283 283 283 284 284 284 284 284 284 284 284 284 284 284 284 283 283 283 282 282 282 281 281 280 280 279 278 278
261 261 262 262 262 263 263 263 264 265 265 266 267 267 268 269 270 271 272 273 273 274 275 275 276 277 277 278 278 279 280 281 282 282 283 283 283 283 284 284 284 284 284 284 284 284 284 283 283 283 284 284 284 284 284 283 283 283 283 283 283 283 284 284 284 284 284 284 283 283 283 283 283 283 282 282 282 281 281 280 279 279 278 277 277
261 261 262 262 262 263 263 264 264 265 266 266 267 268 269 269 270 271 271 272 273 273 274 275 276 276 276 277 277 278 279 280 281 281 282 282 282 283 283 283 283 284 284 284 284 284 283 283 283 283 283 284 284 283 283 283 283 283 283 283 283 283 283 283 283 283 283 283 283 283 283 282 282 282 281 281 281 281 280 280 279 278 277 277 276
261 261 261 262 262 263 263 264 264 265 266 266 267 267 268 269 269 270 270 271 272 272 273 274 274 274 275 275 276 277 278 279 279 280 280 281 281 282 282 282 283 283 283 283 283 283 283 283 283 283 283 283 283 283 282 282 282 282 282 282 282 282 282 282 282 282 282 282 282 282 281 281 281 281 280 280 280 280 279 279 278 277 276 276 275
261 261 261 261 262 262 263 263 264 264 265 265 265 266 266 267 267 268 269 269 270 270 271 271 271 272 273 273 274 274 275 276 277 277 278 279 279 280 280 280 280 281 281 281 281 282 282 282 282 282 282 281 281 281 281 281 281 281 281 281 281 281 281 281 282 282 282 282 281 281 281 280 280 280 279 279 279 279 278 278 277 277 276 275 274
262 261 261 261 262 262 262 263 263 263 263 264 264 264 265 265 266 266 267 267 267 268 268 268 268 269 269 270 270 271 271 272 273 274 275 276 277 277 278 278 279 279 279 280 280 280 280 281 281 281 281 280 280 280 280 280 280 280 280 280 280 280 280 280 280 280 280 280 280 280 280 279 279 279 279 278 278 278 277 277 277 276 275 275 274
263 262 261 261 261 261 262 262 262 262 263 263 263 263 264 264 265 265 265 265 265 266 266 266 266 266 266 267 267 268 269 269 270 270 271 272 274 275 276 276 277 278 278 278 279 279 279 279 279 279 279 279 279 279 279 279 279 279 279 279 279 279 279 279 278 278 278 278 278 278 278 278 278 278 278 277 277 277 277 276 276 275 275 275 275
264 263 262 261 261 261 261 261 261 262 262 262 262 263 263 263 264 264 264 264 264 264 264 264 264 264 265 265 266 266 267 268 268 269 269 270 271 272 273 274 275 276 277 277 277 277 278 278 278 278 277 277 277 277 277 277 277 277 278 278 278 278 278 278 278 278 277 277 277 277 277 277 277 277 277 277 277 276 276 275 275 275 275 275 275
264 263 262 262 261 261 261 261 261 261 261 261 262 262 262 262 263 263 263 263 263 263 263 263 263 263 264 264 265 266 266 267 267 268 269 269 270 271 272 272 273 274 274 274 274 275 275 275 275 276 275 275 275 275 275 275 276 276 276 276 276 276 276 276 277 277 277 277 277 277 277 277 277 276 276 276 276 276 275 275 274 274 274 273 273
263 263 263 262 262 261 261 261 260 261 261 261 261 261 261 262 262 262 262 262 262 262 262 262 263 263 263 264 264 265 265 266 266 267 268 268 269 270 270 271 271 272 272 272 272 273 273 273 273 273 273 273 273 274 274 274 274 274 274 274 274 274 275 275 275 275 275 275 276 276 276 276 275 275 275 275 274 274 274 273 273 273 272 272 272
263 263 262 262 262 261 261 261 260 261 261 260 260 261 261 261 261 261 261 261 261 261 261 262 262 262 263 263 264 264 265 265 266 266 267 267 268 268 268 269 269 269 270 270 270 271 271 271 271 271 271 272 272 272 272 272 272 272 273 273 273 273 273 274 274 274 274 274 274 274 274 274 274 274 274 273 273 273 272 272 272 271 271 270 270
Wind_Speed
12 12 13 13 13 13 13 14 15 17 18 19 20 21 22 23 21 20 21 22 22 22 22 21 21 21 21 23 24 24 25 25 25 26 27 28 28 28 28 28 31 34 34 34 35 36 38 39 40 41 41 41 41 41 41 42 42 41 40 38 38 37 36 32 24 21 24 25 25 24 25 27 31 34 38 41 44 47 48 48 48 47 45 42 40
11 12 12 12 13 13 13 13 14 16 18 19 20 20 22 23 22 21 21 22 22 23 23 22 22 22 22 23 24 24 25 26 26 26 29 29 29 29 29 29 31 34 34 35 36 35 36 38 39 40 40 40 40 40 41 41 40 40 39 38 38 38 38 37 30 24 24 25 25 24 24 26 30 32 35 39 41 44 47 48 47 46 44 42 41
9 10 10 10 10 11 12 12 13 15 17 19 20 20 20 22 23 22 21 21 22 23 24 24 23 23 24 24 24 25 26 26 26 27 29 31 30 30 30 30 31 33 35 36 37 36 36 37 39 39 38 38 39 39 40 40 39 39 39 39 39 40 40 40 35 29 26 26 24 24 25 27 29 31 33 36 38 41 45 48 47 46 45 44 42
6 7 7 8 9 9 10 11 12 14 15 17 17 18 18 20 22 22 20 20 22 22 23 24 24 25 26 26 27 27 27 27 27 28 30 32 33 32 31 31 32 32 34 35 35 35 36 37 38 38 38 37 38 39 38 38 38 39 39 39 39 40 40 40 39 36 30 26 23 25 27 28 29 30 31 33 35 38 41 44 44 45 45 44 43
5 5 6 7 8 9 9 10 11 12 13 14 14 15 15 16 19 19 18 18 20 21 23 23 24 25 26 27 28 28 28 28 28 29 30 31 33 34 33 32 32 33 33 33 33 33 34 36 37 36 36 36 37 37 37 38 38 38 39 39 39 40 39 38 38 38 34 29 25 23 25 27 27 29 31 33 33 33 36 39 42 44 44 44 44
6 7 7 8 9 9 9 10 10 11 12 12 13 13 13 14 16 16 15 16 18 20 21 22 23 25 26 27 28 29 29 29 29 30 31 31 32 34 35 34 33 33 33 33 33 33 34 35 35 35 35 36 37 36 36 37 37 38 38 39 39 39 37 36 35 35 34 33 28 23 24 27 27 28 30 33 34 33 34 35 38 42 44 45 46
8 9 9 9 10 10 10 11 11 12 12 12 12 12 12 13 13 13 13 15 17 18 19 21 22 24 25 26 27 28 29 29 30 31 31 32 33 33 34 35 35 34 34 34 33 33 34 35 35 35 36 36 37 37 36 36 37 38 39 39 39 37 35 34 33 32 32 31 28 25 26 29 29 28 29 32 33 32 33 34 35 39 42 45 46
11 11 11 11 11 11 11 12 12 13 13 13 13 13 12 12 12 12 13 14 15 16 17 19 20 22 24 25 26 27 28 29 30 31 32 32 33 34 35 35 36 35 34 34 34 34 35 36 36 37 37 37 38 38 38 37 37 37 38 38 37 36 34 33 31 30 29 28 27 26 27 28 29 26 25 29 32 31 35 39 39 40 41 42 43
12 12 13 13 12 12 13 13 13 14 14 14 14 14 14 14 14 14 14 14 14 15 16 18 19 21 22 23 24 25 27 29 30 30 31 32 33 34 35 35 36 36 35 34 34 35 36 36 37 38 38 38 38 38 38 38 37 37 37 36 36 35 34 31 28 27 26 26 25 24 24 26 30 29 28 33 39 37 36 38 39 41 41 40 41
13 13 14 14 14 14 14 15 14 14 14 15 15 15 16 16 16 16 15 15 15 15 16 17 19 20 21 22 23 24 26 28 28 29 30 31 32 34 34 35 35 35 35 35 35 35 35 36 38 38 38 38 37 37 37 37 38 39 38 37 36 35 33 30 28 28 26 25 25 24 23 24 29 34 35 39 42 38 32 34 36 36 35 32 32
14 14 15 15 16 16 17 17 17 17 17 17 17 17 17 17 17 16 16 16 16 16 17 18 19 20 21 22 23 24 25 26 26 27 28 29 30 32 34 34 34 34 35 35 36 36 35 35 36 37 37 37 37 36 36 37 37 39 39 39 38 37 36 33 31 30 28 26 26 26 26 26 28 34 35 34 35 33 30 34 36 31 29 27 22
14 15 16 16 16 17 18 18 19 19 19 20 20 20 20 19 19 18 18 17 16 17 18 19 19 20 21 23 24 25 25 25 25 26 27 27 28 30 33 34 34 34 35 35 36 36 36 36 35 35 36 37 37 36 36 36 36 37 38 39 40 40 39 38 36 34 31 29 27 28 29 29 29 32 33 31 32 32 31 35 36 31 29 28 24
14 15 16 16 17 17 18 18 19 19 20 20 20 21 21 21 21 21 20 19 19 20 20 20 21 21 22 23 25 26 26 25 25 25 26 27 27 28 31 33 34 35 35 35 36 36 36 36 35 35 35 36 36 36 36 36 35 35 36 37 39 40 41 41 41 39 36 34 31 32 33 33 31 33 35 35 34 32 29 30 33 30 28 29 30
14 15 17 17 18 18 18 18 19 19 19 19 20 20 20 21 21 21 21 21 21 22 22 22 23 23 23 24 26 27 27 26 25 25 26 27 27 28 30 32 33 35 35 36 36 37 37 36 35 35 35 34 35 35 35 35 34 34 35 36 37 39 40 42 42 41 40 38 37 37 37 36 35 35 36 37 37 36 34 34 35 35 33 32 32
15 17 18 19 19 19 19 19 19 19 20 20 20 20 20 21 21 20 21 21 22 22 23 23 24 24 24 25 27 29 29 27 26 25 26 26 26 27 29 31 33 35 36 36 37 37 36 35 36 36 35 34 34 34 34 34 33 33 34 34 36 37 38 41 41 41 43 43 43 41 38 36 36 36 35 36 38 40 40 39 38 36 34 30 27
17 18 19 20 21 20 20 20 20 21 21 21 22 22 21 22 21 21 22 22 22 23 23 24 25 25 26 26 27 30 30 28 26 26 25 25 26 27 29 31 33 34 36 37 37 37 36 35 35 36 36 35 35 34 33 33 33 32 32 33 34 35 37 38 39 40 42 43 42 41 38 35 35 35 35 36 37 38 34 31 31 30 27 24 21
19 20 21 22 23 23 23 23 23 23 23 24 24 23 23 23 22 22 23 24 24 24 24 25 25 26 27 27 27 30 31 29 27 26 25 24 25 27 29 31 32 34 36 37 36 36 36 35 34 35 36 35 34 33 32 31 31 32 31 32 32 33 35 35 34 35 37 38 40 41 39 37 35 35 37 36 37 38 35 30 30 30 27 20 16
20 21 22 22 23 23 23 24 24 25 25 25 25 24 24 24 23 22 23 24 25 25 25 26 27 26 27 28 27 29 32 30 28 27 26 24 24 26 29 30 33 34 36 36 36 35 35 35 34 34 36 35 34 33 32 31 31 32 31 31 31 32 32 30 29 31 32 34 38 39 37 36 36 36 37 36 37 41 41 35 33 33 30 23 18
20 20 21 21 21 21 22 23 23 24 24 24 24 25 25 25 24 24 24 24 26 26 26 27 29 29 29 29 28 29 31 32 29 27 26 24 23 25 28 30 33 34 35 35 35 34 34 34 33 33 34 34 34 33 33 31 32 33 32 30 30 30 29 28 28 29 30 32 35 35 34 34 35 35 36 36 38 42 43 39 35 35 33 29 23
20 19 20 20 20 20 21 21 22 23 24 24 24 24 24 25 25 26 26 26 27 28 28 28 31 33 31 31 31 30 31 32 30 27 26 24 22 23 26 30 33 34 34 34 34 33 32 32 32 33 33 33 33 33 33 32 32 33 32 30 30 30 29 28 29 29 30 32 33 33 33 33 33 33 34 34 36 41 42 39 37 38 36 30 26
19 19 19 20 20 20 21 21 22 22 23 24 24 24 24 24 25 25 26 27 27 29 30 29 31 34 34 33 33 33 32 32 31 28 25 24 22 22 25 29 32 33 34 34 33 32 32 30 30 31 31 31 32 32 32 32 32 33 33 33 33 31 28 26 27 28 29 30 30 30 31 31 31 33 33 33 36 38 40 39 38 38 38 33 30
20 20 21 21 22 22 23 23 24 24 24 25 26 27 25 24 25 25 26 27 27 29 30 30 31 34 36 36 35 35 33 33 32 30 27 25 23 23 25 29 30 31 33 35 35 33 33 31 30 31 30 30 30 31 31 31 30 32 33 33 33 31 28 27 27 27 29 28 27 27 28 28 29 31 32 33 35 36 37 38 38 38 39 38 35
21 21 22 23 23 24 25 25 25 25 26 26 27 28 28 27 28 27 26 27 28 30 31 30 30 33 37 37 37 36 35 34 33 31 29 27 25 25 26 28 29 29 32 36 37 35 33 32 31 31 31 30 30 29 29 30 29 30 31 31 32 31 30 28 27 27 29 28 26 27 28 28 29 30 33 34 35 37 37 37 39 39 38 37 36
22 22 23 24 24 25 26 26 26 26 27 27 28 29 30 31 31 30 28 26 27 29 31 30 28 30 33 36 39 39 37 35 34 33 31 30 29 28 27 27 28 28 31 36 38 36 34 34 33 31 30 30 30 29 29 29 29 30 30 30 30 30 29 28 26 26 28 28 28 29 28 28 30 32 34 35 34 36 38 38 38 39 36 34 32
22 23 24 25 26 27 28 28 28 28 28 28 29 30 31 32 33 32 30 27 26 27 29 30 28 28 29 32 37 40 39 37 36 34 32 31 30 30 28 27 27 28 30 35 37 37 36 35 34 31 30 29 28 28 29 29 29 29 28 28 28 28 28 27 25 26 28 29 30 29 29 30 31 32 33 34 34 34 35 35 33 33 32 30 28
24 25 26 27 27 28 29 30 30 30 30 30 30 30 30 30 31 33 31 28 26 26 28 29 28 27 28 30 33 37 39 38 37 35 32 31 31 29 27 26 27 27 29 33 35 36 37 36 34 33 32 30 29 29 30 29 28 28 27 27 28 28 29 29 28 29 31 30 28 28 28 29 30 30 30 33 34 34 34 34 31 29 31 31 27
25 26 27 28 28 28 29 31 31 32 32 31 31 31 30 28 28 31 31 28 26 27 27 27 27 26 26 29 32 34 36 38 38 35 31 30 29 29 27 27 27 27 29 32 32 34 35 35 34 33 32 31 30 30 29 28 27 26 27 28 29 30 30 31 31 32 31 29 27 26 27 26 27 29 31 33 34 34 34 35 34 32 32 31 28
26 27 27 27 27 28 28 29 30 31 32 31 30 30 30 29 28 31 32 28 26 28 28 27 28 27 25 28 30 31 33 38 37 32 29 28 29 29 30 30 28 28 29 31 31 31 32 31 30 29 29 29 29 28 27 27 27 27 27 28 29 30 30 30 30 31 30 28 27 26 26 26 28 31 31 31 32 32 32 33 34 35 34 30 27
28 27 27 27 27 28 29 29 28 29 31 32 32 31 29 27 28 32 35 31 25 26 28 30 31 29 26 29 29 27 30 39 39 34 31 32 32 33 33 33 31 30 30 30 30 30 28 26 24 24 24 25 25 25 26 26 27 27 28 28 27 28 29 30 29 29 29 28 26 26 25 26 28 29 28 28 29 30 31 31 32 33 34 30 26
30 27 25 26 27 28 30 29 27 28 29 30 32 34 34 31 27 29 34 35 30 26 26 30 33 31 29 33 33 30 32 40 43 41 38 37 36 35 36 36 35 33 31 29 28 28 25 23 23 24 23 24 24 24 25 25 26 26 26 27 28 29 31 33 33 31 30 29 28 26 26 26 26 27 28 28 28 29 31 32 31 31 32 29 24
29 27 25 27 26 25 26 27 27 27 26 25 25 28 34 38 36 32 31 32 34 32 29 29 31 31 31 34 36 35 36 38 39 40 40 38 36 36 37 37 37 35 33 29 28 27 25 23 23 24 24 24 25 26 25 26 26 25 25 26 28 29 31 34 34 31 30 30 29 28 27 27 27 27 29 29 28 29 31 31 29 29 30 28 24
28 27 27 27 26 24 24 25 24 22 22 23 22 22 24 30 37 40 37 31 30 32 34 33 31 29 29 30 32 35 37 36 35 36 37 38 37 37 37 37 35 33 31 29 28 29 27 25 24 23 23 24 26 26 26 26 27 27 26 25 26 28 30 31 31 30 29 29 28 27 28 28 28 28 29 28 27 29 32 32 31 29 27 25 25
26 26 26 26 26 25 23 21 21 20 21 22 23 23 21 21 25 34 41 40 35 33 33 32 28 26 26 27 28 31 35 36 36 36 36 37 38 38 39 38 35 31 29 29 29 28 26 25 25 25 24 25 26 26 26 27 27 26 26 25 24 26 28 28 28 28 29 28 28 27 28 28 28 28 28 27 28 30 32 33 32 30 27 25 25
23 23 23 23 25 25 22 20 20 21 22 22 22 22 22 21 21 24 30 35 37 37 36 33 28 25 26 29 29 29 31 35 37 37 36 37 38 38 39 40 37 32 29 30 30 27 24 24 26 26 25 26 27 26 26 26 26 25 25 25 24 24 24 25 25 27 28 28 28 27 27 27 27 27 26 25 26 27 29 29 30 29 28 27 26
22 22 21 20 20 21 21 20 21 22 22 22 22 22 22 23 23 23 23 24 28 31 35 37 34 30 29 32 33 33 32 33 35 36 36 36 37 37 36 35 33 29 27 28 29 28 26 26 26 26 26 26 27 26 25 25 25 24 24 23 22 22 22 23 25 26 27 28 27 27 27 27 27 28 27 25 25 26 26 27 27 28 27 26 25
22 22 21 19 18 19 20 21 21 21 22 23 23 23 24 23 23 24 25 25 26 27 31 36 39 38 36 35 34 34 34 32 32 34 36 37 36 35 32 30 28 26 24 25 27 28 28 28 28 27 26 26 26 25 24 24 25 24 24 23 22 21 22 23 24 25 26 27 27 27 27 27 28 29 28 27 27 27 27 28 28 28 27 26 24
21 21 21 20 20 20 21 21 20 20 22 23 23 23 24 24 23 24 25 26 27 27 29 32 35 38 38 36 34 33 35 36 35 35 35 34 33 32 31 29 28 26 25 25 25 26 27 28 28 27 26 26 25 24 24 25 24 24 23 23 23 23 22 23 24 25 26 26 27 27 28 28 29 30 29 27 26 26 26 26 26 26 26 25 23
19 19 20 20 21 20 20 20 20 20 21 21 21 22 23 23 23 24 25 26 27 27 28 30 30 31 32 35 35 35 36 37 35 32 29 27 26 27 28 29 28 27 27 26 26 25 26 26 27 26 26 26 26 25 24 24 23 23 23 23 24 24 23 23 23 25 26 26 26 27 28 28 29 30 30 28 26 26 25 25 24 23 23 23 21
21 20 20 19 19 19 19 19 20 20 20 20 20 21 22 23 24 24 24 26 27 27 27 28 29 29 29 32 35 35 33 31 30 27 25 25 24 24 25 26 27 27 27 27 26 26 26 26 25 25 25 26 26 25 24 23 22 23 23 23 22 22 22 22 23 24 25 25 25 25 26 27 27 28 29 27 26 26 26 25 25 24 24 24 23
23 23 22 20 19 19 18 19 19 19 20 20 21 22 23 24 25 25 25 26 27 27 27 27 28 29 29 31 33 32 30 29 28 28 27 27 25 24 24 25 26 26 27 27 26 26 26 26 25 24 24 24 24 24 23 23 23 23 23 23 22 21 21 21 22 22 23 23 24 24 25 25 26 26 27 26 26 27 27 26 26 26 25 25 24
24 25 24 23 21 20 19 19 19 19 20 21 23 24 24 25 25 25 26 27 27 28 28 29 29 30 31 33 34 33 32 31 30 29 28 28 27 26 25 25 25 26 26 26 26 26 25 25 24 23 23 22 22 23 23 23 24 23 23 22 21 20 20 20 21 22 21 21 22 23 23 24 25 25 25 24 23 25 25 25 25 24 23 21 21
24 25 25 25 23 22 22 22 22 22 24 25 25 24 24 25 25 25 26 27 28 28 29 30 30 31 33 34 34 33 32 30 29 28 28 27 27 27 26 26 25 26 26 26 26 26 25 24 23 22 21 20 21 22 23 23 24 23 22 21 21 20 20 20 21 22 21 21 21 22 22 23 24 25 24 23 22 22 22 22 22 22 21 20 20
24 24 24 25 24 23 24 25 25 25 26 26 25 24 23 24 25 25 26 27 28 28 29 30 31 32 33 33 33 32 30 28 27 27 27 26 26 26 26 26 26 26 26 27 27 26 24 22 20 19 19 18 19 21 22 23 22 21 20 20 20 19 19 20 20 21 21 20 20 21 21 21 22 22 21 21 21 21 21 20 20 20 19 19 19
23 23 23 23 23 22 22 23 23 23 23 23 23 23 23 24 24 25 25 27 27 27 28 29 30 31 31 31 29 27 26 24 24 24 25 25 25 25 24 24 23 22 21 21 21 20 18 17 16 15 14 14 15 17 17 18 18 18 18 18 17 17 17 18 19 20 19 19 18 18 18 18 18 18 18 18 18 18 18 18 18 18 18 19 19
21 21 22 22 21 20 20 21 21 21 22 22 22 22 22 22 23 24 24 25 26 26 26 26 27 27 27 26 25 24 23 23 22 21 20 19 18 17 16 14 13 11 9 8 8 9 10 10 10 9 9 9 10 10 11 11 11 12 13 14 14 15 15 15 16 16 16 16 16 16 16 16 16 16 16 16 17 17 16 17 18 18 18 18 18
20 20 20 20 20 19 19 20 21 21 21 21 21 22 22 22 22 23 23 23 24 24 24 24 24 23 23 23 23 22 22 20 18 16 14 12 11 9 8 6 4 2 1 1 2 3 4 5 6 6 7 7 7 7 7 7 7 8 8 8 8 9 10 10 10 10 10 11 12 13 13 14 14 14 14 15 15 15 15 16 17 17 17 17 17
19 19 19 19 19 19 20 21 21 21 21 21 21 21 21 22 22 22 22 23 23 23 22 23 23 23 23 23 22 21 19 17 15 14 13 10 9 7 6 5 4 4 4 4 4 4 5 5 6 6 6 6 6 7 7 7 7 8 8 7 6 6 6 7 8 8 8 8 8 9 11 12 12 13 13 13 13 14 14 14 15 16 17 17 17
18 18 19 19 19 19 21 22 22 21 22 23 22 21 21 21 22 22 22 23 23 23 22 23 24 25 25 23 22 21 19 18 17 16 16 15 14 13 12 11 10 9 8 9 8 8 8 8 8 8 8 8 8 9 9 10 10 10 10 8 7 6 6 7 8 8 8 8 8 8 10 11 12 13 13 13 13 14 14 15 16 17 17 17 16
17 17 18 18 19 19 20 21 21 22 22 23 22 22 21 21 21 22 22 23 24 24 23 23 24 25 25 24 24 23 22 21 21 20 19 19 18 17 16 16 15 14 14 13 13 12 12 11 10 10 10 10 11 11 11 11 11 11 10 9 8 7 7 7 8 8 8 8 9 9 10 11 13 15 15 15 15 15 15 15 15 15 14 14 13
16 16 16 17 18 18 19 19 20 20 21 21 21 22 22 21 21 21 22 23 24 25 24 23 23 24 24 24 24 24 23 23 22 21 20 19 19 18 17 17 16 16 16 16 15 15 14 13 13 12 12 12 12 12 12 12 11 11 10 10 9 8 8 8 8 8 8 8 9 9 10 11 13 13 13 13 13 13 13 13 13 12 12 12 12
15 15 15 16 17 17 18 19 19 20 20 20 20 21 22 22 22 22 22 22 23 24 24 23 23 23 23 23 23 23 22 22 21 21 20 20 18 18 17 17 16 16 15 15 14 14 13 12 11 11 10 10 10 10 9 9 9 8 8 7 7 6 6 6 6 6 6 6 7 7 8 9 10 10 10 10 11 11 11 12 11 11 12 11 11
Wind_Direction
332 326 321 317 312 310 305 298 290 283 279 274 273 272 270 269 268 268 268 267 266 265 265 266 267 267 267 265 263 261 257 255 252 248 247 251 253 257 257 250 245 246 248 248 247 246 244 243 244 246 246 245 244 244 244 244 244 242 240 239 237 235 234 233 241 254 252 247 248 248 245 239 236 233 228 225 224 223 223 224 224 222 221 220 220
320 316 314 312 312 312 306 299 294 288 284 280 278 278 276 274 273 272 271 271 270 268 268 267 267 266 265 265 264 263 260 258 256 251 248 250 253 255 254 251 247 245 247 249 250 249 248 246 247 248 248 246 245 245 244 243 242 241 239 237 236 236 234 233 237 248 252 247 242 241 241 236 232 230 227 225 224 221 221 222 222 221 221 221 221
315 313 312 313 311 307 303 299 295 290 287 286 285 285 284 281 278 275 274 275 273 271 271 270 268 266 265 265 264 263 261 259 257 255 252 251 253 255 254 252 250 248 247 248 249 249 249 248 248 250 249 247 246 245 245 244 242 241 239 237 237 238 236 234 235 241 248 249 241 236 235 233 230 229 227 226 223 220 221 221 221 220 220 220 221
325 321 321 326 323 317 315 310 301 296 293 292 292 292 290 287 282 279 279 279 276 275 274 272 270 268 265 265 264 263 262 261 259 258 256 254 254 255 257 255 254 253 252 251 251 249 248 247 249 251 249 247 246 246 245 244 242 240 240 239 238 239 238 236 234 237 243 249 244 237 234 231 228 227 224 220 219 221 221 220 219 219 219 219 220
1 352 350 351 347 342 337 325 315 311 306 303 302 299 296 293 286 284 284 283 281 279 277 274 272 270 268 268 268 266 266 264 263 263 261 259 257 256 257 258 258 258 258 257 256 254 252 251 251 252 250 247 247 247 245 244 243 241 240 239 239 240 240 237 235 236 239 243 244 239 232 228 226 224 219 214 212 216 219 218 218 218 219 219 220
17 12 10 8 5 359 350 341 334 329 325 321 318 312 309 303 294 293 296 292 288 285 281 279 276 274 273 273 271 270 270 269 268 268 266 264 262 260 259 259 260 262 262 261 261 259 257 256 255 254 251 250 249 249 248 246 244 242 241 241 241 240 239 237 235 234 235 239 242 235 225 222 218 216 216 213 207 205 209 214 217 218 218 217 218
28 26 24 21 17 11 3 356 350 345 343 340 335 331 326 317 310 312 311 302 296 293 288 285 283 280 278 277 275 274 273 271 270 270 269 268 266 264 262 261 261 263 265 264 264 263 262 261 259 257 254 253 253 252 250 248 246 245 243 243 243 240 238 237 234 232 232 235 237 232 224 221 216 214 213 211 209 207 203 202 208 214 217 216 216
37 35 34 30 25 20 13 7 3 360 357 354 350 345 339 332 328 327 321 312 306 302 297 293 288 285 282 280 279 278 275 273 272 271 271 270 268 266 265 264 263 263 265 266 266 265 265 264 262 261 258 257 256 255 253 250 248 246 245 244 243 239 237 235 232 229 229 230 232 229 223 217 212 209 206 202 205 209 206 202 203 208 212 215 217
40 38 36 33 27 22 17 12 10 6 2 359 355 351 347 344 341 337 329 322 316 310 305 299 293 289 288 285 283 281 277 275 274 274 273 272 270 269 267 266 264 263 264 266 267 267 266 266 265 264 262 261 260 258 257 254 251 248 247 245 242 238 237 234 229 225 224 227 228 224 218 214 208 202 199 199 204 208 208 206 207 209 209 212 215
39 38 35 31 25 20 17 14 11 8 4 1 357 353 351 348 345 342 337 330 325 318 309 302 298 295 293 291 288 284 281 280 280 278 276 274 273 271 270 268 266 264 264 265 266 267 267 268 268 267 266 265 263 261 260 258 256 253 252 248 243 239 234 231 228 223 221 224 224 217 213 215 211 205 205 207 208 207 203 201 206 209 206 207 213
38 36 32 28 22 19 16 13 11 8 5 2 359 356 354 351 348 345 340 335 329 321 313 308 305 302 298 295 292 288 286 286 286 283 281 278 275 272 270 269 267 265 264 264 265 266 267 270 271 270 268 266 264 264 262 261 259 258 256 252 248 243 237 232 228 224 221 224 224 218 215 218 217 214 212 212 209 205 201 199 200 200 198 199 208
40 37 33 29 24 21 18 14 12 9 6 3 360 357 354 352 351 347 343 339 331 322 318 314 310 308 303 299 296 294 293 293 292 289 285 282 278 274 271 269 268 266 264 265 265 266 266 268 270 269 268 266 266 265 264 263 262 261 259 256 251 247 243 238 234 229 224 224 224 222 220 220 221 217 213 210 206 203 203 202 200 197 198 200 203
41 38 33 29 25 22 19 16 14 11 8 5 2 359 356 353 352 349 344 340 334 328 324 319 315 312 307 303 301 300 299 298 296 294 291 287 283 278 273 270 268 266 265 265 265 265 265 266 267 268 268 267 267 266 265 265 265 264 263 260 254 249 246 243 241 237 232 228 226 227 225 222 221 219 216 212 205 199 197 199 200 200 202 206 208
38 34 30 27 24 21 18 16 13 10 8 6 3 1 358 355 353 349 344 340 336 332 329 324 321 317 312 308 305 302 301 301 300 297 295 292 288 283 277 273 270 268 267 266 265 265 265 264 265 266 267 267 266 265 265 265 266 265 263 260 256 251 247 244 242 240 237 234 232 234 232 226 223 224 221 214 207 200 196 196 198 200 204 209 213
32 29 26 23 19 16 15 13 11 8 6 4 2 1 357 354 352 347 342 340 336 332 329 326 323 320 317 313 308 305 305 305 304 300 297 295 292 287 280 276 272 270 269 267 266 265 264 263 264 264 265 265 264 264 265 265 265 264 262 260 257 254 250 246 242 240 238 236 236 237 237 232 228 227 224 217 211 208 204 202 201 200 201 206 211
25 22 19 16 13 11 9 8 6 4 2 0 359 358 355 352 350 345 340 337 334 331 329 326 322 320 318 314 309 308 309 309 306 303 300 297 294 288 282 278 274 271 270 269 267 266 264 262 262 263 263 263 264 264 264 264 263 261 259 259 258 255 253 250 247 244 241 239 238 238 238 236 232 229 228 223 216 209 204 202 201 197 194 197 202
19 14 11 9 7 5 3 1 359 358 357 355 353 353 351 349 348 344 338 335 333 331 327 324 321 319 317 314 311 309 310 311 308 304 301 297 293 288 283 279 275 272 272 271 269 267 265 263 261 262 262 263 263 263 262 260 259 257 256 257 257 255 255 253 250 247 243 240 239 238 237 236 233 231 230 227 218 207 198 195 196 192 188 188 196
12 8 6 3 1 359 357 355 353 351 350 349 347 346 346 345 344 342 337 332 330 328 325 322 320 318 315 314 311 308 309 311 308 304 301 296 291 286 282 278 275 273 273 273 271 268 266 265 262 261 261 262 263 264 262 257 254 253 252 253 253 253 253 252 248 244 240 237 237 237 234 232 231 230 228 225 219 209 200 196 194 189 187 192 197
4 1 359 356 354 352 349 348 346 344 343 342 341 341 341 340 340 338 335 332 329 327 325 322 320 319 317 315 313 309 309 311 310 305 303 297 290 284 280 275 273 272 272 272 271 269 266 265 263 260 261 263 263 263 262 257 253 252 250 249 249 251 251 249 244 239 233 229 230 230 227 226 226 225 223 220 217 211 206 203 199 192 191 197 196
356 353 350 348 347 345 344 342 341 339 339 337 336 337 337 336 336 335 333 331 329 327 326 323 321 321 320 318 316 313 311 313 313 309 305 300 292 284 277 272 269 270 271 271 271 270 267 264 263 261 261 262 263 263 262 258 254 253 251 246 246 251 253 248 242 236 230 226 224 222 221 219 218 217 216 213 212 211 210 208 206 202 200 199 194
348 346 343 341 341 340 340 339 338 337 337 335 333 333 335 334 333 332 331 330 327 326 325 324 322 321 321 320 318 317 316 315 315 313 309 305 300 289 277 272 270 270 271 272 270 269 268 265 263 262 261 262 263 264 263 259 255 253 251 248 249 254 254 248 242 235 229 225 221 218 217 214 212 212 211 207 207 210 211 210 211 212 210 205 199
342 341 339 338 337 338 338 338 337 336 336 335 332 331 334 334 332 332 331 328 326 324 323 323 321 320 320 319 318 318 318 316 315 314 311 308 304 295 283 279 276 271 269 271 270 268 268 267 266 265 263 262 264 264 264 262 256 252 251 252 254 254 251 247 242 232 225 221 217 213 212 209 207 207 207 205 205 208 210 211 215 217 216 213 210
338 337 335 334 333 334 333 333 334 334 334 333 331 330 332 332 331 330 330 327 325 323 321 321 319 317 317 318 317 317 317 316 314 313 311 309 305 298 291 287 283 273 267 268 270 269 270 270 268 267 265 264 264 263 264 262 255 251 252 253 253 251 246 242 237 228 221 218 214 211 210 208 205 205 204 203 204 207 210 212 214 215 214 215 216
334 333 331 330 330 330 330 330 331 331 331 331 330 328 329 330 328 327 326 324 321 318 317 317 315 312 311 313 314 315 315 313 312 310 309 307 305 301 296 292 288 279 270 268 270 270 270 270 269 268 266 265 264 263 263 261 256 253 253 252 249 246 240 234 228 223 219 216 213 211 211 209 207 207 205 203 204 208 210 210 211 212 211 211 212
333 332 330 330 330 328 327 326 327 327 328 329 328 327 327 326 324 322 321 319 316 313 312 311 309 306 305 304 307 311 312 311 309 308 307 306 304 302 299 295 291 284 275 272 273 272 271 271 271 269 266 262 261 261 260 258 255 253 251 248 243 238 234 229 223 218 216 215 214 213 212 211 210 209 206 203 204 207 206 203 204 205 205 204 205
331 329 328 327 327 326 324 323 323 323 324 325 324 323 323 322 320 317 315 313 312 308 306 306 304 301 300 300 301 305 308 307 306 305 306 306 304 303 300 297 294 288 279 276 276 275 274 272 270 267 264 260 256 255 255 254 253 250 247 243 237 233 230 226 220 216 216 217 217 216 215 213 211 208 205 202 202 203 201 198 196 195 196 197 196
327 326 326 326 326 326 326 324 323 322 322 322 321 320 320 318 315 311 309 307 307 304 301 300 298 296 296 298 300 302 303 303 303 304 305 306 306 306 303 299 296 291 284 281 280 279 277 275 271 266 263 259 255 252 252 251 248 245 241 237 233 231 230 227 223 220 219 220 220 219 217 213 208 205 203 201 200 201 200 197 194 189 189 191 190
329 328 329 329 328 328 328 326 325 323 322 322 321 318 317 316 312 307 304 301 299 299 297 294 291 291 293 294 296 299 299 298 298 301 305 307 306 306 304 299 296 292 287 286 286 284 281 277 272 266 260 254 250 247 244 241 239 237 234 232 231 231 232 230 227 224 222 221 220 218 214 208 205 203 203 201 199 199 198 197 196 192 188 186 186
333 332 332 331 330 330 329 328 326 324 322 322 320 316 313 311 307 305 305 302 295 292 292 290 289 289 289 289 289 289 290 294 297 299 300 299 299 299 296 294 291 288 287 289 288 283 278 273 267 261 254 247 243 239 236 233 231 232 231 228 228 229 229 226 224 223 221 219 218 215 210 206 204 203 202 200 201 202 200 197 195 192 187 184 186
335 333 332 330 329 329 329 327 325 324 323 321 320 317 314 311 306 302 305 306 301 291 285 286 289 290 287 286 286 281 280 288 296 299 297 296 296 296 294 292 288 284 283 285 282 275 269 264 258 253 246 242 240 237 233 229 226 226 226 224 224 224 223 221 221 220 217 215 214 213 209 206 203 201 200 200 201 203 201 199 195 188 183 183 185
333 329 327 327 326 325 324 322 321 321 320 318 317 315 315 315 312 307 305 307 306 301 293 286 287 288 284 283 286 286 283 285 291 295 297 297 298 297 296 293 289 284 281 279 272 264 257 253 251 247 242 239 240 238 235 231 227 224 223 222 223 223 222 221 220 219 215 213 211 208 206 205 203 200 199 200 201 200 198 197 195 189 185 185 187
328 324 323 323 323 320 318 316 314 313 313 314 314 311 310 312 313 313 311 308 305 304 302 297 292 290 287 284 285 288 289 289 290 291 294 295 296 296 295 292 287 283 279 271 262 257 253 248 246 245 240 238 239 237 235 233 230 226 224 223 222 222 222 222 221 218 215 213 209 206 204 202 201 201 201 199 198 196 194 193 193 189 185 187 190
325 322 321 321 320 317 314 311 309 307 307 308 310 308 305 303 304 308 312 312 308 304 303 302 298 294 291 288 285 286 289 291 292 291 291 293 293 293 293 291 286 281 274 263 255 254 252 248 247 246 242 239 240 238 235 233 232 229 228 227 225 223 224 224 222 218 215 213 210 207 205 202 200 200 200 198 197 196 193 193 193 189 183 184 189
326 323 323 323 320 316 314 309 307 306 304 303 303 302 299 297 294 294 300 307 310 309 306 303 300 296 294 293 292 289 288 289 290 290 290 291 291 291 291 290 285 279 269 258 252 252 251 249 248 247 243 241 241 239 236 234 232 231 231 231 230 228 227 225 222 218 215 212 209 207 205 202 198 197 197 197 197 196 195 195 193 187 182 184 188
330 328 328 326 318 313 312 308 305 303 301 300 300 298 296 296 295 290 287 292 298 302 302 301 301 300 299 296 296 295 292 288 288 290 290 290 291 291 289 285 280 274 264 253 249 250 250 250 250 248 245 243 242 239 237 234 233 232 232 232 230 228 225 223 222 219 214 210 207 205 203 200 197 196 196 195 193 192 194 196 194 188 185 186 189
334 329 326 322 315 309 307 303 300 298 298 298 298 296 294 294 293 290 289 288 288 289 292 295 300 303 302 300 300 300 297 292 289 289 289 290 290 287 282 277 272 268 259 251 248 249 251 252 252 252 249 246 243 240 237 234 233 232 231 229 227 226 224 223 222 219 214 209 206 202 199 197 196 195 194 194 194 194 195 196 194 190 188 190 191
332 325 321 319 314 307 302 298 296 295 295 295 296 295 293 292 291 290 290 289 289 289 290 294 300 304 304 305 307 306 302 298 294 290 288 286 284 279 274 271 269 265 259 254 251 251 253 254 254 253 251 248 245 240 236 233 232 230 228 227 226 225 225 223 222 218 213 208 205 201 198 197 196 195 193 192 193 196 197 197 194 190 189 192 191
328 321 317 314 309 304 300 298 298 299 296 294 295 295 294 292 291 292 292 291 290 291 293 296 298 300 301 304 307 307 305 301 296 292 287 282 277 273 269 269 267 264 260 257 255 254 255 256 256 255 253 249 245 240 235 231 228 225 225 225 225 225 225 224 222 218 212 207 204 201 199 199 198 196 195 193 193 195 196 196 192 186 185 188 189
328 323 318 312 307 304 303 302 302 303 301 299 299 299 299 297 296 294 294 294 293 292 294 296 296 296 298 303 306 307 305 300 295 293 291 286 279 273 269 267 267 265 262 259 257 256 256 257 258 257 254 250 245 238 232 227 224 223 224 223 223 223 223 222 221 217 211 207 204 201 199 199 199 197 196 196 195 194 194 193 192 188 184 187 191
330 328 325 321 314 310 308 305 303 303 304 304 305 303 301 299 297 296 295 295 294 294 295 296 295 296 300 303 304 304 301 296 293 292 291 288 284 279 273 268 266 265 264 262 260 258 257 257 257 257 256 251 243 235 228 224 223 223 223 222 221 221 221 220 219 217 211 206 203 200 199 198 197 196 197 198 197 196 194 192 192 191 189 190 194
333 330 328 326 321 316 311 307 304 305 305 305 304 302 299 297 296 295 296 295 294 295 296 295 294 296 300 302 302 301 297 292 291 290 289 288 286 283 278 273 269 267 266 265 262 260 258 257 256 256 256 251 241 230 225 224 223 222 221 220 220 220 219 218 217 215 210 204 200 197 196 196 195 195 195 196 196 195 193 192 191 191 190 190 192
337 331 328 327 324 320 316 312 309 309 310 307 302 299 298 299 299 298 297 296 295 296 296 294 295 298 301 303 304 302 297 292 290 290 289 288 287 285 282 279 275 271 268 266 264 262 259 256 254 254 253 248 237 228 224 224 223 221 219 219 219 218 217 216 215 213 210 205 201 198 197 196 195 195 194 193 192 191 190 190 189 188 188 189 189
337 332 330 327 325 323 319 317 316 315 314 312 308 305 305 304 303 301 300 298 297 297 297 297 299 302 304 305 306 304 300 295 293 292 291 291 290 288 287 284 281 278 274 270 266 262 257 254 252 251 249 244 236 230 227 226 224 222 220 219 218 217 215 213 212 211 209 205 202 201 198 196 195 194 192 191 190 190 189 189 188 187 189 189 187
338 335 332 329 327 324 321 321 319 317 316 315 314 313 312 310 308 307 305 303 303 303 302 303 305 307 308 310 311 308 304 302 300 299 298 297 295 293 290 288 284 280 274 268 262 257 253 250 247 243 238 234 229 226 225 225 224 223 221 218 216 214 212 211 210 209 207 204 201 198 196 194 193 191 189 189 190 189 189 189 188 186 186 185 183
343 340 336 333 330 325 322 323 322 319 319 319 318 318 319 317 314 314 313 311 310 311 311 311 313 313 313 316 317 316 314 312 310 308 307 306 303 298 294 291 286 279 270 258 248 243 239 237 233 225 216 211 210 212 213 215 217 218 220 220 217 214 213 213 212 210 208 206 203 200 196 194 192 190 188 188 190 189 187 188 188 186 184 181 181
350 346 342 337 332 326 324 326 325 323 322 322 320 320 322 322 320 319 318 317 316 316 317 319 321 322 324 328 331 333 332 330 328 328 326 322 321 320 318 316 313 302 277 188 181 192 198 200 199 192 183 177 175 178 183 189 195 198 200 202 206 207 206 205 204 203 203 203 202 200 197 193 192 192 190 188 188 188 188 188 190 189 186 182 181
353 352 347 341 335 332 330 329 328 327 326 325 323 322 322 322 322 323 323 323 323 323 323 327 333 339 343 345 348 354 357 357 358 0 2 3 7 15 25 34 45 58 75 89 101 115 130 140 143 143 143 143 145 146 148 150 156 158 153 149 157 167 169 168 166 165 168 173 178 184 187 184 182 183 184 182 183 186 187 188 190 189 186 184 185
353 354 350 345 341 338 335 334 333 331 330 329 328 326 325 325 325 327 329 331 332 332 333 336 344 352 357 2 7 12 17 20 23 28 33 38 42 49 54 57 59 64 71 77 81 89 98 106 110 113 116 120 125 128 128 129 132 134 133 136 143 149 153 159 161 159 160 163 165 170 176 177 176 176 177 178 180 182 183 184 185 185 184 186 190
349 351 349 347 344 341 339 337 336 333 333 334 332 331 332 333 332 333 334 336 339 345 348 349 353 359 5 10 16 21 25 29 34 38 42 46 48 51 55 58 61 64 69 71 72 76 82 87 92 99 105 108 111 113 114 114 116 118 118 121 126 132 139 148 154 158 164 170 172 174 177 178 177 177 177 178 180 181 181 181 182 183 184 185 187
343 345 345 345 344 341 340 339 338 336 337 338 336 335 337 338 338 339 340 338 340 349 356 357 360 7 12 15 19 23 27 29 32 35 38 41 43 46 49 53 56 59 64 68 70 73 78 83 86 91 96 99 101 103 104 104 106 109 112 114 117 121 126 132 136 140 146 151 155 161 165 166 167 168 168 170 173 174 175 176 177 177 179 180 180
333 336 338 339 339 339 338 338 338 338 338 338 337 337 339 339 338 344 350 348 346 351 358 0 3 11 17 19 20 23 26 27 29 32 34 35 37 39 41 44 46 49 53 58 62 65 70 75 78 82 86 90 92 94 96 97 98 101 105 110 113 116 121 126 130 136 142 147 152 157 160 162 164 166 168 171 174 174 174 175 176 176 177 178 179